NWS Home NWS Lubbock West Texas Mesonet North Sector Latest Conditions as of 0316 PM, Tue Sep 18, 2018

Latest   N   C   S   Daily Sum   3hrΔ   24hrΔ   Soil Data 
Site Map   24hr Precip   72hr Precip   Google Plot


Station Time of Last Temp Dew Pt. RH Wind Direction Wind Speed Wind Gust Max Wind Max Temp Min Temp Max RH Min RH Altimeter 1HR Rain Today's Rain Solar Rad
Adrian 6WSW  03:10 PM 86 61 44% S1924 28 mph 187° @ 1214 PM 86 62 96 44 30.02" 0 0.00 782
Aiken 3WSW  03:10 PM 83 64 52% S1618 26 mph 217° @ 0130 PM 85 64 96 49 30.02" 0 0.00 477
Amarillo 15NNW   03:10 PM 90 61 38% SW2129 29 mph 208° @ 0310 PM 91 65 100 36 29.95" 0 0.00 782
Amarillo 7SSE  03:10 PM 87 61 43% S1620 27 mph 224° @ 1237 PM 88 63 97 38 30.00" 0 0.00 789
Amarillo 9NNE  03:10 PM 89 62 40% S1219 27 mph 195° @ 0220 PM 89 64 100 40 29.96" 0 0.00 709
Amherst 1NE  03:10 PM 81 60 51% S1422 22 mph 184° @ 0245 PM 82 62 100 50 30.03" 0 0.01 795
Bootleg 11WNW  03:10 PM 83 61 48% S1722 28 mph 175° @ 0234 PM 84 63 93 46 30.05" 0 0.00 776
Boys Ranch 1WSW  03:10 PM 89 60 38% S1114 26 mph 204° @ 0200 PM 90 63 92 37 29.95" 0 0.00 780
Canadian 6E  03:10 PM 92 65 40% S2024 26 mph 181° @ 0137 PM 94 66 93 37 29.89" 0 0.00 392
Caprock Canyons State Park  03:10 PM 87 65 48% S1519 29 mph 191° @ 0214 PM 88 69 86 46 29.97" 0 0.00 479
Childress 2NNE  03:10 PM 92 64 42% S1525 30 mph 181° @ 0120 PM 92 71 84 42 29.93" 0 0.00 864
Clarendon 2WSW  03:10 PM 87 63 46% S1621 27 mph 178° @ 0250 PM 87 66 89 46 29.97" 0 0.00 640
Claude 12SW  03:10 PM 86 63 46% S1721 25 mph 198° @ 0208 PM 87 67 89 43 29.99" 0 0.00 916
Dimmitt 2NE  03:10 PM 82 62 54% S1825 25 mph 183° @ 0310 PM 82 62 100 54 30.03" 0 0.00 801
Dozier 3W  03:10 PM 90 68 49% SW2025 28 mph 197° @ 0257 PM 91 66 99 44 29.95" 0 0.00 367
Earth 9WSW  03:10 PM 83 63 52% S1422 25 mph 169° @ 0236 PM 83 62 98 50 30.03" 0 0.00 806
Endee NM 2SW  03:10 PM 88 62 42% S1518 28 mph 185° @ 1139 AM 88 63 93 39 29.99" 0 0.00 775
Estelline 3SSE  03:10 PM 91 66 44% S1519 25 mph 185° @ 0249 PM 93 68 91 41 29.92" 0 0.00 928
Floydada 2NNE  03:10 PM 87 63 45% S1824 27 mph 183° @ 0155 PM 87 65 95 44 30.00" 0 0.00 693
Friona 2NE  03:10 PM 84 61 50% S1520 25 mph 189° @ 0305 PM 84 62 98 48 30.03" 0 0.00 819
Fritch 1WNW  03:10 PM 90 60 36% SW1722 29 mph 230° @ 1047 AM 90 67 85 36 29.94" 0 0.00 783
Goodlett 3W  03:10 PM 91 64 41% S1824 27 mph 201° @ 0300 PM 91 70 84 41 29.91" 0 0.00 813
Goodnight  03:10 PM 88 63 44% S1519 27 mph 166° @ 0211 PM 90 66 90 42 29.99" 0 0.00 548
Happy 1E  03:10 PM 85 63 49% S2025 26 mph 193° @ 0259 PM 85 61 98 48 30.02" 0 0.00 819
Hart 3N  03:10 PM 83 62 52% S1522 24 mph 194° @ 0135 PM 83 61 99 51 30.02" 0 0.00 820
Hereford 2NW  03:10 PM 82 60 49% S1623 24 mph 189° @ 0250 PM 83 63 96 48 30.01" 0 0.00 801
Lesley 2S  03:10 PM 89 67 48% S1417 26 mph 189° @ 0227 PM 91 69 89 45 29.93" 0 0.00 280
McLean 1E  03:10 PM 87 63 48% S1728 28 mph 176° @ 0240 PM 88 67 89 45 29.95" 0 0.00 781
Memphis 1NE  03:10 PM 89 65 47% S1522 23 mph 197° @ 0155 PM 89 66 95 47 29.93" 0 0.00 795
Muleshoe 2SSW  03:10 PM 82 63 56% S1419 20 mph 167° @ 0150 PM 82 59 100 55 30.03" 0 0.00 717
Northfield 1S  03:10 PM 91 64 41% S1622 28 mph 204° @ 0305 PM 92 68 90 41 29.94" 0 0.00 770
Odell 4ENE  03:10 PM 93 66 42% SW1922 27 mph 176° @ 0131 PM 93 73 85 40 29.92" 0 0.00 756
Olton 6S  03:10 PM 82 62 52% S1722 24 mph 186° @ 0220 PM 82 63 95 50 30.02" 0 0.00 613
Palo Duro 4E (JA Ranch)  03:10 PM 89 65 45% S1620 25 mph 183° @ 0307 PM 90 66 91 43 29.95" 0 0.00 552
Palo Duro Canyon SP Floor  03:10 PM 90 64 42% SW711 21 mph 202° @ 1225 PM 90 69 82 42 29.95" 0 0.00 709
Palo Duro Canyon State Park Rim  03:10 PM 88 62 42% S1822 25 mph 177° @ 1159 AM 88 64 91 41 30.00" 0 0.00 839
Pampa 2E  03:10 PM 87 63 45% S1727 28 mph 179° @ 0200 PM 88 63 97 43 29.96" 0 0.00 798
Panhandle 1SSW  03:10 PM 88 62 41% S2225 32 mph 200° @ 0231 PM 89 61 96 39 29.99" 0 0.00 796
Plainview 1S  03:10 PM 82 64 56% S1523 23 mph 199° @ 0310 PM 82 65 97 56 30.01" 0 0.00 549
Silverton 7ESE  03:10 PM 84 60 46% S1827 29 mph 185° @ 0215 PM 85 66 90 46 30.00" 0 0.00 409
Stinnett 1NNW  03:10 PM 90 61 38% S2327 31 mph 181° @ 0126 PM 90 63 95 38 29.95" 0 0.00 794
Tulia 2ENE  03:10 PM 83 62 52% S1926 27 mph 200° @ 0120 PM 84 63 95 50 30.02" 0 0.00 469
Turkey 2WSW  03:10 PM 86 67 53% SE1520 24 mph 177° @ 1230 PM 87 69 90 53 29.95" 0 0.00 701
Umbarger 3NNE  03:10 PM 85 63 47% S2226 28 mph 189° @ 0220 PM 85 62 95 47 30.01" 0 0.00 782
Vigo Park  03:10 PM 86 65 49% S1721 28 mph 184° @ 0209 PM 86 62 98 48 30.01" 0 0.00 797

West Texas Mesonet Home   Site Map/Menu  NWS Lubbock Soil Data  Daily Summary Page  24hr Precip  72hr Precip  Google Plot